Location: ???????
(55.7027°N, 37.3832°E)
Time: 14:18:57
(UTC+00:00)

Nadezhda 4 Rocket - Pass Details

Date: 14 April 2026
Orbit: 948 x 992 km, 82.9° (Epoch: 17 May)

Event Time Altitude Azimuth Distance (km) Brightness Sun altitude
Rises 22:08:20 0° 348° (NNW) 3,680 8.2 -24.2°
Reaches altitude 10° 22:10:54 10° 352° (N) 2,722 7.3 -24.1°
Maximum altitude 22:17:05 64° 74° (ENE) 1,060 4.2 -23.9°
Enters shadow 22:19:35 36° 142° (SE) 1,463 4.6 -23.8°
